Weather History for Phuket, Thailand

Change the Weather History Date:

Wednesday, February 13, 2013

  Actual Average Record
Temperature  
Mean Temperature 84 °F -  
Max Temperature 92 °F 91 °F 98 °F (2003)
Min Temperature 76 °F 75 °F 69 °F (2000)
Cooling Degree Days 19    
Growing Degree Days 34 (Base 50)    
Moisture  
Dew Point 72 °F    
Average Humidity 71    
Maximum Humidity 89    
Minimum Humidity 49    
Precipitation  
Precipitation 0.00 in 0.06 in - ()
Sea Level Pressure  
Sea Level Pressure 29.82 in    
Wind  
Wind Speed 3 mph ()    
Max Wind Speed 10 mph    
Max Gust Speed 20 mph    
Visibility 5.5 miles    
Events      
Averages and records for this station are not official NWS values.
T = Trace of Precipitation, MM = Missing Value Source: Averaged Metar Reports

Daily Weather History Graph

Daily Weather History Graph

Search for Another Location

Airport:

Trip Planner

Search our weather history database for the weather conditions in past years. The results will help you decide how hot, cold, wet, or windy it might be!

Date:

Astronomy

Feb. 13, 2013 Rise Set
Actual Time 6:45 AM ICT 6:36 PM ICT
Civil Twilight 6:23 AM ICT 6:58 PM ICT
Nautical Twilight 5:59 AM ICT 7:22 PM ICT
Astronomical Twilight 5:34 AM ICT 7:47 PM ICT
Moon 8:45 AM ICT (2/13) 9:13 PM ICT (2/13)
Length of Visible Light 12h 34m
Length of Day
11h 51m
Waxing Crescent, 10% of the Moon is Illuminated
Feb 13
Waxing Crescent
Feb 18
First Quarter
Feb 26
Full
Mar 5
Last Quarter
Mar 12
New

Hourly Weather History & Observations

Time (ICT) Temp. Heat Index Dew Point Humidity Pressure Visibility Wind Dir Wind Speed Gust Speed Precip Events Conditions
12:00 AM 78.8 °F - 71.6 °F 78% 29.83 in 5.6 mi Calm Calm - N/A   Mostly Cloudy
12:30 AM 78.8 °F - 71.6 °F 78% 29.83 in 5.6 mi East 3.5 mph - N/A   Mostly Cloudy
1:00 AM 79 °F - 75 °F 83% 29.79 in 6 mi Calm Calm - -   Scattered Clouds
1:00 AM 78.8 °F - 71.6 °F 78% 29.83 in 5.6 mi Calm Calm - N/A   Mostly Cloudy
1:30 AM 78.8 °F - 71.6 °F 78% 29.80 in 5.6 mi Calm Calm - N/A   Mostly Cloudy
2:00 AM 78.8 °F - 71.6 °F 78% 29.80 in 5.6 mi Calm Calm - N/A   Mostly Cloudy
2:30 AM 78.8 °F - 71.6 °F 78% 29.80 in 5.6 mi ESE 3.5 mph - N/A   Mostly Cloudy
3:00 AM 78.8 °F - 71.6 °F 78% 29.83 in 5.6 mi Variable 3.5 mph - N/A   Mostly Cloudy
3:30 AM 78.8 °F - 71.6 °F 78% 29.80 in 5.6 mi Calm Calm - N/A   Mostly Cloudy
4:00 AM 77.0 °F - 73.4 °F 89% 29.80 in 5.6 mi Calm Calm - N/A   Mostly Cloudy
4:30 AM 77.0 °F - 71.6 °F 83% 29.80 in 5.6 mi Calm Calm - N/A   Mostly Cloudy
5:30 AM 77.0 °F - 71.6 °F 83% 29.80 in 5.6 mi Calm Calm - N/A   Mostly Cloudy
6:00 AM 77.0 °F - 71.6 °F 83% 29.80 in 5.6 mi ESE 4.6 mph - N/A   Mostly Cloudy
6:30 AM 77.0 °F - 71.6 °F 83% 29.80 in 5.6 mi ESE 3.5 mph - N/A   Scattered Clouds
7:00 AM 78 °F - 74 °F 84% 29.78 in 6 mi Calm Calm - -   Scattered Clouds
7:00 AM 77.0 °F - 71.6 °F 83% 29.80 in 5.6 mi Calm Calm - N/A   Scattered Clouds
7:30 AM 78.8 °F - 71.6 °F 78% 29.83 in 5.6 mi ENE 4.6 mph - N/A   Scattered Clouds
8:00 AM 80.6 °F 84.6 °F 71.6 °F 74% 29.83 in 5.6 mi NE 4.6 mph - N/A   Scattered Clouds
8:30 AM 80.6 °F 84.6 °F 71.6 °F 74% 29.86 in 5.6 mi Variable 2.3 mph - N/A   Scattered Clouds
9:00 AM 82.4 °F 87.2 °F 71.6 °F 70% 29.86 in 5.6 mi Variable 3.5 mph - N/A   Mostly Cloudy
9:30 AM 84.2 °F 89.6 °F 71.6 °F 66% 29.86 in 5.6 mi Variable 4.6 mph - N/A   Mostly Cloudy
10:00 AM 84.2 °F 89.6 °F 71.6 °F 66% 29.89 in 5.6 mi Variable 5.8 mph - N/A   Mostly Cloudy
10:30 AM 86.0 °F 91.8 °F 71.6 °F 62% 29.89 in 5.6 mi East 9.2 mph - N/A   Mostly Cloudy
11:00 AM 87.8 °F 93.8 °F 71.6 °F 58% 29.89 in 5.0 mi NE 4.6 mph - N/A   Mostly Cloudy
11:30 AM 86.0 °F 90.4 °F 69.8 °F 58% 29.89 in 5.0 mi East 8.1 mph - N/A   Mostly Cloudy
12:00 PM 87.8 °F 92.6 °F 69.8 °F 55% 29.86 in 5.6 mi Variable 6.9 mph 19.6 mph N/A   Mostly Cloudy
12:30 PM 87.8 °F 92.6 °F 69.8 °F 55% 29.86 in 5.6 mi ENE 9.2 mph - N/A   Mostly Cloudy
1:00 PM 90 °F - 73 °F 49% 29.83 in 5 mi ENE 5.8 mph - -   Haze
1:00 PM 87.8 °F 93.8 °F 71.6 °F 58% 29.86 in 5.0 mi East 9.2 mph - N/A   Mostly Cloudy
1:30 PM 87.8 °F 92.6 °F 69.8 °F 55% 29.83 in 5.0 mi East 9.2 mph - N/A   Mostly Cloudy
2:00 PM 87.8 °F 92.6 °F 69.8 °F 55% 29.83 in 5.6 mi East 9.2 mph - N/A   Mostly Cloudy
2:30 PM 87.8 °F 92.6 °F 69.8 °F 55% 29.80 in 5.6 mi ESE 10.4 mph - N/A   Mostly Cloudy
3:00 PM 89.6 °F 94.7 °F 69.8 °F 52% 29.80 in 5.6 mi East 8.1 mph - N/A   Mostly Cloudy
3:30 PM 91.4 °F 96.8 °F 69.8 °F 49% 29.77 in 5.6 mi East 9.2 mph - N/A   Mostly Cloudy
4:00 PM 89.6 °F 93.4 °F 68.0 °F 49% 29.77 in 5.0 mi NW 4.6 mph - N/A   Mostly Cloudy
4:30 PM 87.8 °F 95.6 °F 73.4 °F 62% 29.77 in 5.0 mi Variable 4.6 mph - N/A   Mostly Cloudy
5:00 PM 87.8 °F 95.6 °F 73.4 °F 62% 29.77 in 5.6 mi West 9.2 mph - N/A   Mostly Cloudy
5:30 PM 86.0 °F 93.4 °F 73.4 °F 66% 29.77 in 5.6 mi West 10.4 mph - N/A   Mostly Cloudy
6:00 PM 86.0 °F 91.8 °F 71.6 °F 62% 29.77 in 5.6 mi WNW 10.4 mph - N/A   Mostly Cloudy
6:30 PM 84.2 °F 89.6 °F 71.6 °F 66% 29.77 in 5.0 mi WNW 8.1 mph - N/A   Mostly Cloudy
7:00 PM 85 °F - 74 °F 62% 29.75 in 5 mi WNW 4.6 mph - -   Mist
7:00 PM 84.2 °F 89.6 °F 71.6 °F 66% 29.80 in 5.0 mi WNW 6.9 mph - N/A   Mostly Cloudy
7:30 PM 82.4 °F 87.2 °F 71.6 °F 70% 29.80 in 5.0 mi WNW 4.6 mph - N/A   Mostly Cloudy
8:00 PM 80.6 °F 84.6 °F 71.6 °F 74% 29.83 in 5.6 mi NW 3.5 mph - N/A   Mostly Cloudy
8:30 PM 78.8 °F - 73.4 °F 83% 29.83 in 5.6 mi Calm Calm - N/A   Mostly Cloudy
9:00 PM 78.8 °F - 73.4 °F 83% 29.83 in 5.6 mi Calm Calm - N/A   Mostly Cloudy
9:30 PM 78.8 °F - 73.4 °F 83% 29.86 in 5.6 mi Calm Calm - N/A   Mostly Cloudy
10:00 PM 77.0 °F - 73.4 °F 89% 29.86 in 5.6 mi Calm Calm - N/A   Mostly Cloudy
10:30 PM 77.0 °F - 73.4 °F 89% 29.86 in 5.6 mi Calm Calm - N/A   Mostly Cloudy
11:00 PM 77.0 °F - 73.4 °F 89% 29.86 in 5.6 mi Variable 2.3 mph - N/A   Mostly Cloudy
11:30 PM 77.0 °F - 73.4 °F 89% 29.86 in 5.6 mi Calm Calm - N/A   Mostly Cloudy